Vertical_Velocity
3 1 -2 -2 0 2 2 1 0 -0 -2 -1 -1 1 2 -2 -2 -1 0 0 1 2 2 -0 1 1 1 2 0 -0 -0 2 3 -1 1 -0 -6 -2 0 1 -1 -2 -0
-0 -2 -0 -2 -1 2 1 2 -2 -3 -0 -1 -1 2 1 0 -1 -0 1 -0 0 1 1 -1 -1 3 3 7 3 3 4 1 7 -2 0 0 -2 -1 -2 -2 -2 -2 -0
-1 -2 -1 1 -0 -0 1 -1 -1 -0 0 0 2 2 2 0 -0 1 1 0 0 -1 -3 0 8 4 8 6 6 5 3 5 2 3 2 2 1 0 5 3 2 2 0
-2 -0 1 -0 -1 0 -1 -2 -2 -0 -1 1 0 -0 3 4 2 -1 -2 0 1 1 -1 1 5 1 1 4 5 4 1 4 3 2 2 7 6 5 6 6 4 3 5
-1 1 1 -2 -0 0 -2 -4 -2 -2 -0 1 -0 -0 -1 -1 -0 1 2 3 1 1 -0 0 2 1 3 1 -1 -1 -0 1 6 1 0 2 6 3 5 3 6 2 1
-2 -0 1 -1 0 -1 -1 -3 -3 -1 0 -1 -1 -0 -2 -1 1 0 -1 -1 -2 0 0 1 1 -2 -4 -4 -1 -1 -0 3 3 3 3 5 5 4 4 6 9 -3 -5
-1 2 1 -0 1 -3 -2 -2 -0 1 0 -1 0 -1 -2 -2 -3 -1 0 -1 0 1 1 -0 -1 -1 -2 -2 -2 0 1 2 1 -1 -2 -3 -1 -6 -6 -8 -8 -5 -2
3 -1 0 1 -0 -3 -1 -0 1 -2 -1 1 1 1 0 -0 -0 -0 -1 -2 -3 -2 -1 -0 -0 -0 -0 -1 1 1 1 1 0 -1 -1 -2 0 -1 2 2 3 8 8
2 1 1 -0 1 -2 0 2 -1 -0 0 0 2 0 -1 -1 0 -0 -1 -1 -1 -1 -1 -1 -1 -0 -1 -1 0 1 1 1 -0 1 1 0 2 -0 -1 1 2 6 12
-0 2 -1 -2 -2 1 -0 -4 -1 -0 1 -0 0 -0 -2 -2 -2 -0 -0 -1 -0 0 -0 -0 -1 -0 -2 -2 -2 -1 -0 1 1 -1 1 0 1 4 2 1 2 0 2
-3 -1 0 -0 -0 1 -1 -1 -1 0 2 3 3 1 1 -0 -3 -2 -0 -0 -2 -1 0 -1 1 2 2 1 1 1 2 1 -2 -3 -1 -1 -0 -1 -2 -0 0 0 1
-2 -0 -1 -0 1 0 1 1 0 0 0 1 -0 0 -1 -1 0 -1 -0 1 0 1 1 2 0 1 -2 -1 -1 -1 -1 0 -0 1 0 -1 1 1 -0 -0 0 -0 -2
3 -0 -0 -0 -0 1 0 -4 8 -1 -1 3 -1 -0 -3 -1 -1 -0 -1 -2 1 1 1 0 1 -0 1 1 -1 -2 -1 -1 0 -0 1 1 0 -0 0 -1 -2 -2 -0
-0 2 2 0 -2 1 -0 -5 15 0 1 3 2 -0 -1 -0 -1 -1 -1 -1 -2 -1 -1 -1 -2 -2 -1 -1 -0 2 2 0 0 1 1 -1 -1 1 2 -0 -1 1 1
-3 0 0 2 -0 -1 1 0 -1 -0 0 0 -1 1 1 1 -1 -1 -2 -3 -2 -2 -2 -3 -3 -2 -1 -2 -1 -2 -2 -4 -4 -3 -3 -3 -1 -1 -0 -1 -2 -0 -0
-2 -4 -2 -2 -1 0 -2 -2 -3 5 11 0 2 3 2 1 1 -1 0 -1 -1 -0 1 1 -0 -1 -0 -0 -1 -2 -0 0 0 -1 -1 0 -2 -3 -2 1 1 -1 0
-1 0 1 0 -1 -2 -1 -1 2 2 2 0 2 0 1 1 0 1 2 0 -1 -0 -0 -1 -1 -2 0 1 -2 -2 -2 -4 -2 1 1 -3 -4 -2 -2 -2 -2 -1 0
-3 -4 -0 -1 -1 -0 1 2 -1 -0 3 1 1 1 2 1 -1 -0 -0 -1 -1 -1 -1 -2 -2 -0 2 1 -1 -2 1 -1 -1 -0 -3 -5 -3 -2 -2 -1 1 -1 -2
-5 -3 -1 -1 1 -0 0 -2 -0 1 2 2 2 1 0 0 -2 -1 -0 0 1 -2 -1 -0 -1 1 1 1 -4 -3 -2 -4 -3 -3 -3 -2 -2 -1 -1 -2 -1 -1 -1
-3 -4 -2 4 4 2 1 -0 0 2 2 1 -0 -1 0 -1 -1 -1 -1 -1 -0 -1 -2 -1 -4 -3 -0 3 -3 -3 -3 -4 -4 -4 -5 -5 -4 -2 -3 -2 -2 1 -1
-3 -0 -1 1 4 2 -0 -3 1 -0 0 1 1 1 1 -1 -1 0 1 1 0 0 -2 -4 -5 -5 -4 -4 -4 -5 -5 -5 -4 -3 -4 -4 -3 -1 -2 -2 -2 -3 -4
-3 0 -1 -1 3 -1 -1 -3 3 1 0 3 -3 -2 -3 -0 2 1 -0 -0 1 0 2 -1 -2 -3 -3 -3 -3 -3 -2 -3 -4 -4 -5 -4 -4 -2 -3 -2 -2 -2 -4
-1 -1 -2 -2 2 5 0 -3 0 1 -3 1 1 -2 2 1 -1 0 -0 -4 -3 0 2 4 3 1 -1 -3 -2 -3 -3 -4 -3 -3 -4 -3 -4 -3 -2 -3 -1 -1 -0
0 0 -2 -1 0 -1 -0 0 0 3 3 4 1 1 -0 -0 -0 1 3 -5 -4 -2 -0 0 -1 -1 -0 -0 -0 -1 -1 -2 -2 -2 -3 -4 -4 -4 -4 -4 -2 -2 -4
-0 0 -2 -3 -2 -3 1 0 -1 -2 0 1 -2 -3 -2 0 0 -1 4 1 -6 -2 -2 -1 -0 -2 -2 -1 -0 -1 -2 -2 -3 -2 -3 -3 -4 -4 -4 -3 -2 -1 -0
-0 -3 -0 -0 0 0 0 1 1 -1 -1 -1 0 1 1 0 -0 -2 -2 4 2 -2 0 -2 -2 -0 -2 -1 1 0 -0 -1 -2 -1 -2 -2 -2 -2 -2 -2 -3 -2 -0
Height
5842 5840 5837 5833 5829 5825 5822 5820 5817 5815 5814 5813 5810 5809 5809 5810 5812 5813 5814 5817 5819 5821 5824 5826 5828 5828 5829 5830 5832 5835 5838 5839 5839 5840 5841 5842 5842 5842 5841 5840 5840 5840 5840
5841 5839 5836 5833 5830 5826 5822 5820 5817 5815 5813 5812 5811 5809 5808 5809 5810 5812 5813 5814 5816 5818 5820 5821 5822 5823 5824 5824 5826 5828 5831 5832 5833 5833 5833 5833 5834 5834 5833 5832 5832 5831 5831
5840 5837 5835 5833 5830 5826 5823 5820 5817 5816 5815 5812 5811 5810 5809 5809 5811 5811 5812 5813 5814 5815 5816 5817 5817 5818 5819 5820 5821 5821 5823 5824 5824 5825 5825 5825 5826 5826 5825 5825 5825 5823 5823
5838 5836 5835 5832 5829 5826 5823 5820 5818 5817 5816 5815 5813 5812 5811 5811 5811 5811 5812 5812 5811 5812 5812 5812 5813 5813 5814 5815 5816 5816 5817 5816 5816 5816 5817 5817 5817 5817 5816 5815 5814 5813 5813
5836 5835 5832 5830 5828 5825 5822 5819 5817 5817 5816 5815 5815 5813 5812 5811 5811 5810 5810 5809 5809 5809 5809 5809 5810 5810 5810 5811 5811 5811 5811 5810 5810 5808 5808 5809 5808 5807 5805 5804 5804 5803 5803
5835 5833 5831 5827 5825 5823 5821 5819 5817 5817 5817 5816 5815 5814 5812 5811 5810 5809 5808 5807 5806 5806 5805 5805 5805 5805 5804 5804 5804 5803 5803 5803 5802 5800 5800 5799 5798 5797 5796 5795 5794 5793 5793
5832 5830 5828 5825 5823 5821 5820 5818 5816 5816 5815 5814 5813 5812 5810 5809 5808 5807 5806 5805 5804 5803 5802 5802 5801 5800 5799 5798 5797 5797 5796 5795 5794 5793 5791 5791 5790 5789 5788 5786 5785 5783 5783
5827 5828 5825 5823 5821 5818 5817 5816 5815 5815 5814 5812 5810 5808 5806 5805 5803 5803 5802 5801 5800 5799 5798 5796 5795 5795 5794 5792 5792 5790 5789 5788 5787 5785 5784 5782 5780 5779 5777 5777 5776 5776 5774
5826 5824 5821 5819 5818 5816 5815 5814 5814 5812 5811 5809 5807 5805 5803 5801 5800 5799 5797 5796 5795 5794 5792 5791 5790 5789 5787 5786 5785 5784 5782 5780 5778 5776 5774 5773 5772 5770 5768 5769 5768 5768 5766
5820 5817 5816 5815 5814 5813 5812 5811 5810 5809 5807 5805 5803 5801 5799 5797 5795 5794 5793 5791 5789 5788 5785 5784 5782 5781 5779 5778 5778 5776 5773 5771 5768 5766 5765 5763 5762 5761 5759 5757 5757 5756 5754
5814 5812 5811 5810 5809 5809 5807 5805 5804 5803 5802 5800 5799 5796 5795 5792 5789 5787 5786 5784 5782 5781 5780 5777 5776 5774 5773 5771 5769 5766 5764 5762 5760 5758 5757 5755 5752 5750 5749 5747 5745 5743 5740
5807 5805 5805 5804 5803 5802 5801 5800 5799 5797 5795 5794 5792 5790 5789 5786 5782 5779 5777 5776 5775 5773 5772 5771 5769 5767 5764 5762 5760 5758 5756 5754 5752 5750 5747 5745 5743 5741 5739 5736 5733 5731 5728
5801 5800 5799 5798 5797 5796 5796 5795 5793 5790 5787 5786 5784 5784 5781 5778 5776 5773 5770 5768 5766 5765 5763 5762 5760 5758 5756 5754 5753 5751 5749 5747 5744 5742 5739 5736 5733 5730 5727 5724 5720 5717 5713
5794 5794 5793 5792 5790 5790 5789 5788 5786 5784 5781 5779 5777 5775 5773 5771 5768 5766 5763 5760 5759 5757 5756 5754 5753 5752 5750 5748 5746 5744 5741 5738 5735 5732 5729 5725 5721 5718 5714 5709 5705 5701 5696
5787 5785 5784 5784 5784 5783 5782 5781 5780 5776 5775 5773 5770 5767 5764 5763 5761 5759 5756 5754 5752 5751 5750 5748 5747 5745 5743 5741 5739 5737 5733 5729 5725 5721 5716 5712 5708 5704 5699 5692 5686 5681 5676
5780 5779 5778 5778 5776 5775 5774 5773 5771 5770 5768 5765 5762 5760 5758 5756 5754 5752 5750 5749 5747 5746 5744 5742 5739 5737 5735 5732 5729 5726 5722 5717 5712 5707 5702 5697 5692 5686 5680 5673 5667 5661 5655
5775 5773 5772 5770 5768 5767 5765 5764 5763 5761 5758 5757 5754 5753 5750 5749 5747 5746 5745 5743 5741 5740 5738 5735 5732 5729 5726 5722 5718 5714 5710 5704 5699 5693 5686 5680 5673 5666 5660 5653 5646 5641 5636
5766 5764 5762 5762 5761 5760 5758 5756 5754 5751 5750 5748 5747 5745 5743 5742 5741 5739 5738 5736 5734 5732 5730 5727 5724 5721 5717 5712 5707 5702 5697 5690 5683 5676 5669 5661 5655 5649 5643 5637 5631 5624 5618
5758 5755 5755 5753 5751 5749 5748 5747 5746 5744 5743 5741 5740 5738 5737 5736 5734 5732 5731 5729 5727 5724 5721 5718 5714 5710 5705 5700 5694 5687 5681 5674 5668 5661 5655 5649 5643 5637 5630 5623 5618 5613 5608
5748 5747 5746 5745 5743 5741 5739 5738 5737 5736 5736 5735 5734 5732 5731 5730 5728 5725 5724 5721 5718 5715 5711 5707 5703 5698 5693 5687 5680 5673 5667 5662 5656 5650 5644 5638 5632 5626 5620 5615 5610 5606 5600
5740 5738 5737 5736 5733 5731 5731 5729 5728 5728 5727 5726 5725 5724 5723 5721 5719 5717 5715 5712 5710 5706 5702 5697 5692 5687 5681 5674 5668 5663 5658 5654 5648 5642 5635 5629 5622 5616 5612 5608 5604 5599 5595
5732 5730 5729 5728 5728 5725 5722 5720 5718 5717 5717 5716 5715 5714 5714 5713 5711 5709 5706 5704 5700 5696 5692 5686 5680 5674 5669 5664 5660 5656 5651 5646 5640 5634 5628 5622 5615 5610 5606 5602 5598 5594 5591
5725 5723 5721 5719 5719 5717 5715 5711 5708 5706 5706 5707 5707 5707 5706 5704 5702 5699 5697 5693 5690 5686 5681 5676 5670 5664 5659 5655 5652 5647 5643 5639 5634 5629 5623 5617 5610 5605 5601 5597 5594 5590 5587
5717 5716 5715 5712 5710 5708 5706 5703 5701 5700 5700 5701 5701 5699 5698 5696 5693 5690 5686 5682 5678 5674 5669 5664 5660 5656 5652 5647 5644 5641 5637 5632 5628 5623 5618 5613 5608 5603 5599 5595 5591 5587 5584
5708 5706 5704 5702 5701 5699 5696 5695 5694 5693 5693 5694 5692 5691 5688 5686 5683 5679 5675 5670 5665 5661 5658 5654 5650 5647 5644 5641 5638 5634 5630 5626 5622 5618 5614 5610 5606 5602 5598 5595 5592 5589 5587
5700 5697 5695 5695 5694 5692 5690 5689 5688 5688 5686 5685 5683 5681 5678 5675 5671 5667 5663 5659 5654 5650 5647 5644 5642 5639 5636 5633 5630 5627 5624 5621 5617 5613 5610 5606 5603 5600 5597 5594 5592 5590 5588